| time (UTC) | temp F | wind direction | speed knots | gust knots | rain 1hr in | rain 24hr in | rain mn in | humidity % | barometer mb |
| 20260508080507 | 55 | 94 | 0.0 | 1.7 | 0.00 | 0.94 | 0.00 | 75 | 1015.0 |
| 20260508080007 | 55 | 313 | 0.0 | 0.0 | 0.00 | 0.99 | 0.00 | 75 | 1015.1 |
| 20260508075503 | 55 | 313 | 0.0 | 1.7 | 0.00 | 1.04 | 0.00 | 75 | 1015.0 |
| 20260508075003 | 55 | 313 | 0.0 | 1.7 | 0.00 | 1.07 | 0.00 | 74 | 1015.1 |
| 20260508074511 | 55 | 309 | 0.0 | 1.7 | 0.00 | 1.09 | 0.00 | 74 | 1015.1 |
| 20260508074007 | 55 | 309 | 0.0 | 1.7 | 0.00 | 1.10 | 0.00 | 74 | 1015.0 |
| 20260508073507 | 55 | 309 | 0.0 | 1.7 | 0.00 | 1.10 | 0.00 | 74 | 1015.0 |
| 20260508073017 | 55 | 86 | 0.0 | 1.7 | 0.00 | 1.11 | 0.00 | 75 | 1015.0 |
| 20260508072507 | 54 | 68 | 0.0 | 1.7 | 0.00 | 1.12 | 0.00 | 76 | 1014.9 |
| 20260508072010 | 54 | 136 | 0.0 | 1.7 | 0.00 | 1.13 | 0.00 | 76 | 1014.9 |
| 20260508071522 | 54 | 91 | 0.0 | 0.0 | 0.00 | 1.13 | 0.00 | 78 | 1015.0 |
| 20260508071010 | 53 | 134 | 0.0 | 0.0 | 0.00 | 1.15 | 0.00 | 78 | 1014.9 |
| 20260508070509 | 53 | 143 | 0.0 | 0.0 | 0.00 | 1.19 | 0.00 | 79 | 1014.9 |
| 20260508070030 | 53 | 143 | 0.0 | 0.0 | 0.00 | 1.21 | 0.00 | 80 | 1014.8 |
| 20260508065504 | 52 | 143 | 0.0 | 0.0 | 0.00 | 1.24 | 0.00 | 80 | 1014.7 |
| 20260508065004 | 52 | 143 | 0.0 | 0.0 | 0.00 | 1.25 | 0.00 | 80 | 1014.6 |
| 20260508064519 | 52 | 143 | 0.0 | 0.0 | 0.00 | 1.27 | 0.00 | 81 | 1014.7 |
| 20260508064004 | 52 | 143 | 0.0 | 0.0 | 0.00 | 1.30 | 0.00 | 81 | 1014.7 |
| 20260508063512 | 52 | 143 | 0.0 | 0.0 | 0.00 | 1.32 | 0.00 | 81 | 1014.6 |
| 20260508063018 | 52 | 143 | 0.0 | 0.0 | 0.00 | 1.35 | 0.00 | 81 | 1014.6 |
| 20260508062506 | 52 | 143 | 0.0 | 0.0 | 0.00 | 1.41 | 0.00 | 81 | 1014.7 |
| 20260508062014 | 52 | 143 | 0.0 | 0.0 | 0.00 | 1.44 | 0.00 | 81 | 1014.7 |
| 20260508061519 | 53 | 143 | 0.0 | 0.0 | 0.00 | 1.45 | 0.00 | 80 | 1014.7 |
| 20260508061009 | 53 | 143 | 0.0 | 0.9 | 0.00 | 1.45 | 0.00 | 80 | 1014.7 |
| 20260508060514 | 53 | 143 | 0.0 | 0.9 | 0.00 | 1.47 | 0.00 | 79 | 1014.7 |
| 20260508060025 | 53 | 143 | 0.0 | 1.7 | 0.00 | 1.51 | 0.00 | 79 | 1014.8 |
| 20260508055509 | 53 | 143 | 0.0 | 1.7 | 0.00 | 1.55 | 0.00 | 79 | 1014.8 |
| 20260508055009 | 53 | 143 | 0.0 | 1.7 | 0.00 | 1.57 | 0.00 | 79 | 1014.9 |
| 20260508054511 | 54 | 143 | 0.0 | 1.7 | 0.00 | 1.58 | 0.00 | 79 | 1014.8 |
| 20260508054004 | 54 | 98 | 0.0 | 0.0 | 0.00 | 1.61 | 0.00 | 79 | 1014.9 |
| 20260508053506 | 54 | 87 | 0.0 | 0.0 | 0.00 | 1.63 | 0.00 | 78 | 1015.0 |
| 20260508053014 | 54 | 87 | 0.0 | 0.0 | 0.00 | 1.68 | 0.00 | 78 | 1015.0 |
| 20260508052507 | 54 | 87 | 0.0 | 0.0 | 0.00 | 1.70 | 0.00 | 78 | 1014.9 |
| 20260508052007 | 55 | 87 | 0.0 | 0.0 | 0.00 | 1.74 | 0.00 | 77 | 1014.7 |
| 20260508051529 | 55 | 87 | 0.0 | 0.9 | 0.00 | 1.82 | 0.00 | 77 | 1014.8 |
| 20260508051011 | 55 | 102 | 0.0 | 0.9 | 0.00 | 1.85 | 0.00 | 77 | 1014.9 |
| 20260508050511 | 55 | 102 | 0.0 | 0.0 | 0.00 | 1.96 | 0.00 | 76 | 1014.9 |
| 20260508050021 | 55 | 102 | 0.0 | 0.0 | 0.00 | 2.14 | 0.00 | 76 | 1014.7 |
| 20260508045509 | 55 | 102 | 0.0 | 1.7 | 0.00 | 2.24 | 0.00 | 77 | 1014.9 |
| 20260508045010 | 55 | 102 | 0.0 | 1.7 | 0.00 | 2.36 | 0.00 | 77 | 1014.5 |
| 20260508044531 | 55 | 102 | 0.0 | 0.9 | 0.00 | 2.48 | 0.00 | 77 | 1014.5 |
| 20260508044009 | 55 | 102 | 0.0 | 1.7 | 0.00 | 2.56 | 0.00 | 78 | 1014.4 |
| 20260508043507 | 55 | 102 | 0.0 | 1.7 | 0.00 | 2.62 | 0.00 | 77 | 1014.4 |
| 20260508043017 | 55 | 102 | 0.0 | 0.9 | 0.00 | 2.62 | 0.00 | 77 | 1014.5 |
| 20260508042507 | 56 | 102 | 0.0 | 0.9 | 0.00 | 2.62 | 0.00 | 77 | 1014.4 |
| 20260508042006 | 56 | 102 | 0.0 | 0.0 | 0.00 | 2.62 | 0.00 | 77 | 1014.3 |
| 20260508041521 | 56 | 102 | 0.0 | 0.0 | 0.00 | 2.62 | 0.00 | 77 | 1014.2 |
| 20260508041008 | 56 | 102 | 0.0 | 1.7 | 0.00 | 2.62 | 0.00 | 76 | 1014.2 |
| 20260508040508 | 56 | 102 | 0.0 | 1.7 | 0.00 | 2.62 | 0.00 | 75 | 1014.2 |
| 20260508040022 | 56 | 347 | 0.0 | 1.7 | 0.00 | 2.63 | 0.00 | 75 | 1014.3 |
| 20260508035514 | 57 | 347 | 0.0 | 1.7 | 0.00 | 2.63 | 2.63 | 74 | 1014.2 |
| 20260508035010 | 57 | 347 | 0.9 | 1.7 | 0.00 | 2.63 | 2.63 | 73 | 1014.4 |
| 20260508034532 | 57 | 101 | 0.0 | 0.0 | 0.00 | 2.63 | 2.63 | 72 | 1014.4 |
| 20260508034009 | 57 | 101 | 0.0 | 0.0 | 0.00 | 2.63 | 2.63 | 71 | 1014.3 |
| 20260508033510 | 57 | 101 | 0.0 | 0.0 | 0.00 | 2.63 | 2.63 | 71 | 1014.4 |
| 20260508033030 | 58 | 101 | 0.0 | 0.0 | 0.00 | 2.63 | 2.63 | 72 | 1014.3 |
| 20260508032509 | 58 | 101 | 0.0 | 0.0 | 0.00 | 2.63 | 2.63 | 71 | 1014.3 |
| 20260508032006 | 58 | 101 | 0.0 | 0.0 | 0.00 | 2.63 | 2.63 | 70 | 1014.3 |
| 20260508031515 | 58 | 101 | 0.0 | 0.0 | 0.00 | 2.63 | 2.63 | 68 | 1014.3 |
| 20260508031006 | 59 | 101 | 0.0 | 0.0 | 0.00 | 2.63 | 2.63 | 67 | 1014.3 |
| 20260508030508 | 59 | 101 | 0.0 | 0.0 | 0.00 | 2.63 | 2.63 | 69 | 1014.2 |
| 20260508030022 | 59 | 101 | 0.0 | 0.0 | 0.00 | 2.63 | 2.63 | 67 | 1014.2 |
| 20260508025510 | 59 | 101 | 0.0 | 0.0 | 0.00 | 2.63 | 2.63 | 66 | 1014.1 |
| 20260508025009 | 59 | 101 | 0.0 | 0.0 | 0.00 | 2.63 | 2.63 | 67 | 1014.1 |
| 20260508024527 | 59 | 101 | 0.0 | 1.7 | 0.00 | 2.63 | 2.63 | 65 | 1014.0 |
| 20260508024009 | 60 | 96 | 0.0 | 1.7 | 0.00 | 2.63 | 2.63 | 65 | 1013.9 |
| 20260508023510 | 60 | 88 | 0.0 | 1.7 | 0.00 | 2.63 | 2.63 | 66 | 1013.8 |
| 20260508023026 | 60 | 209 | 0.0 | 1.7 | 0.00 | 2.63 | 2.63 | 66 | 1013.8 |
| 20260508022510 | 60 | 10 | 0.0 | 1.7 | 0.00 | 2.63 | 2.63 | 65 | 1013.7 |
| 20260508022011 | 60 | 346 | 0.0 | 3.5 | 0.00 | 2.64 | 2.63 | 65 | 1013.6 |
| 20260508021530 | 60 | 309 | 0.0 | 3.5 | 0.00 | 2.65 | 2.63 | 65 | 1013.6 |
| 20260508021009 | 61 | 36 | 0.9 | 4.3 | 0.00 | 2.65 | 2.63 | 64 | 1013.5 |
| 20260508020507 | 61 | 50 | 0.0 | 4.3 | 0.00 | 2.67 | 2.63 | 63 | 1013.6 |
| 20260508020029 | 61 | 315 | 0.0 | 7.0 | 0.00 | 2.68 | 2.63 | 63 | 1013.4 |
| 20260508015507 | 61 | 67 | 0.9 | 7.0 | 0.00 | 2.68 | 2.63 | 64 | 1013.4 |
| 20260508015011 | 61 | 71 | 0.9 | 5.2 | 0.00 | 2.69 | 2.63 | 63 | 1013.2 |
| 20260508014524 | 61 | 347 | 0.9 | 6.1 | 0.00 | 2.71 | 2.63 | 65 | 1013.0 |
| 20260508014011 | 61 | 103 | 0.0 | 6.1 | 0.00 | 2.73 | 2.63 | 66 | 1012.9 |